When you browse on this site, cookies collect data to enhance your experience and personalize the content and advertising you see.
Visit our Privacy Policy to learn more. By continuing to use the site, you agree to this use of cookies and data.
  • In Hungary
  • List of Countries
  • For 7 days
  • Water Temperature
  • Satellite Maps
  • Weather Map
  • News
  • Weather Widgets
  • user-avatar
    Login

    Hourly Weather Milerzyska

    Today, 24 January, Thursday

    Time Temperature Precipitation Wind Pressure Humidity
    00:00 -12°C° 0 mm 3 mps 705 mmHg 90%
    01:00 -13°C° 0 mm 3 mps 706 mmHg 89%
    02:00 -13°C° 0 mm 3 mps 706 mmHg 90%
    03:00 -13°C° 0 mm 3 mps 706 mmHg 90%
    04:00 -13°C° 0 mm 3 mps 706 mmHg 90%
    05:00 -12°C° 0 mm 3 mps 706 mmHg 90%
    06:00 -12°C° 0 mm 3 mps 706 mmHg 90%
    07:00 -12°C° 0 mm 3 mps 707 mmHg 90%
    08:00 -12°C° 0 mm 3 mps 707 mmHg 88%
    09:00 -10°C° 0 mm 3 mps 707 mmHg 85%
    10:00 -10°C° 0 mm 4 mps 707 mmHg 83%
    11:00 -10°C° 0 mm 4 mps 707 mmHg 82%
    12:00 -9°C° 0 mm 4 mps 707 mmHg 81%
    13:00 -9°C° 0 mm 4 mps 707 mmHg 80%
    14:00 -9°C° 0 mm 4 mps 707 mmHg 81%
    15:00 -9°C° 0 mm 4 mps 707 mmHg 82%
    16:00 -10°C° 0 mm 4 mps 707 mmHg 83%
    17:00 -10°C° 0 mm 4 mps 707 mmHg 84%
    18:00 -11°C° 0 mm 4 mps 707 mmHg 85%
    19:00 -10°C° 0 mm 3 mps 707 mmHg 86%
    20:00 -10°C° 0.2 mm 3 mps 707 mmHg 87%
    21:00 -10°C° 0.2 mm 3 mps 708 mmHg 89%
    22:00 -10°C° 0.2 mm 3 mps 708 mmHg 90%
    23:00 -10°C° 0.2 mm 3 mps 708 mmHg 90%

    Tomorrow, 25 January, Friday

    Time Temperature Precipitation Wind Pressure Humidity
    00:00 -10°C° 0.2 mm 2 mps 708 mmHg 90%
    01:00 -10°C° 0.2 mm 2 mps 708 mmHg 90%
    02:00 -9°C° 0.1 mm 1 mps 708 mmHg 91%
    03:00 -9°C° 0.1 mm 1 mps 708 mmHg 91%
    04:00 -9°C° 0.1 mm 1 mps 708 mmHg 92%
    05:00 -9°C° 0 mm 1 mps 708 mmHg 92%
    06:00 -9°C° 0 mm 0 mps 708 mmHg 92%
    07:00 -9°C° 0 mm 0 mps 708 mmHg 92%
    08:00 -8°C° 0 mm 0 mps 709 mmHg 90%
    09:00 -7°C° 0 mm 1 mps 709 mmHg 89%
    10:00 -7°C° 0 mm 1 mps 710 mmHg 87%
    11:00 -6°C° 0 mm 1 mps 710 mmHg 85%
    12:00 -6°C° 0 mm 1 mps 710 mmHg 84%
    13:00 -6°C° 0 mm 2 mps 710 mmHg 82%
    14:00 -6°C° 0 mm 2 mps 710 mmHg 83%
    15:00 -7°C° 0 mm 2 mps 710 mmHg 84%
    16:00 -7°C° 0 mm 2 mps 710 mmHg 85%
    17:00 -8°C° 0 mm 2 mps 710 mmHg 87%
    18:00 -8°C° 0 mm 1 mps 711 mmHg 88%
    19:00 -8°C° 0 mm 1 mps 711 mmHg 89%
    20:00 -9°C° 0 mm 1 mps 711 mmHg 89%
    21:00 -9°C° 0 mm 1 mps 711 mmHg 88%
    22:00 -9°C° 0 mm 1 mps 711 mmHg 88%
    23:00 -9°C° 0 mm 1 mps 711 mmHg 88%

    Day after tomorrow, 26 January, Saturday

    Time Temperature Precipitation Wind Pressure Humidity
    00:00 -10°C° 0 mm 2 mps 710 mmHg 89%
    01:00 -10°C° 0 mm 2 mps 710 mmHg 89%
    02:00 -10°C° 0 mm 2 mps 710 mmHg 88%
    03:00 -12°C° 0 mm 2 mps 709 mmHg 88%
    04:00 -12°C° 0 mm 2 mps 709 mmHg 87%
    05:00 -12°C° 0 mm 3 mps 708 mmHg 85%
    06:00 -10°C° 0 mm 3 mps 708 mmHg 83%
    07:00 -10°C° 0 mm 3 mps 707 mmHg 82%
    08:00 -9°C° 0 mm 3 mps 707 mmHg 81%
    09:00 -8°C° 0 mm 4 mps 706 mmHg 81%
    10:00 -7°C° 0 mm 4 mps 706 mmHg 80%
    11:00 -5°C° 0.4 mm 4 mps 705 mmHg 83%
    12:00 -6°C° 0.4 mm 5 mps 704 mmHg 87%
    13:00 -5°C° 0.4 mm 5 mps 703 mmHg 90%
    14:00 -4°C° 0.6 mm 4 mps 703 mmHg 91%
    15:00 -4°C° 0.6 mm 4 mps 703 mmHg 92%
    16:00 -2°C° 0.6 mm 3 mps 703 mmHg 93%
    17:00 -2°C° 0.2 mm 3 mps 703 mmHg 94%
    18:00 -2°C° 0.2 mm 2 mps 703 mmHg 94%
    19:00 -2°C° 0.2 mm 2 mps 703 mmHg 95%
    20:00 -2°C° 0.1 mm 2 mps 703 mmHg 95%
    21:00 -3°C° 0.1 mm 2 mps 704 mmHg 95%
    22:00 -3°C° 0.1 mm 2 mps 704 mmHg 95%
    23:00 -3°C° 0 mm 2 mps 704 mmHg 94%

    27 January, Sunday

    Time Temperature Precipitation Wind Pressure Humidity
    00:00 -3°C° 0 mm 2 mps 704 mmHg 94%
    01:00 -3°C° 0 mm 2 mps 704 mmHg 93%
    02:00 -3°C° 0 mm 2 mps 703 mmHg 92%
    03:00 -3°C° 0 mm 2 mps 703 mmHg 92%
    04:00 -3°C° 0 mm 2 mps 703 mmHg 91%
    05:00 -3°C° 0.1 mm 2 mps 703 mmHg 91%
    06:00 -3°C° 0.1 mm 2 mps 703 mmHg 91%
    07:00 -2°C° 0.1 mm 2 mps 702 mmHg 91%
    08:00 -2°C° 0.1 mm 2 mps 702 mmHg 92%
    09:00 -1°C° 0.1 mm 2 mps 702 mmHg 93%
    10:00 0°C° 0.1 mm 3 mps 702 mmHg 93%
    11:00 +2°C° 0 mm 2 mps 702 mmHg 94%
    12:00 +2°C° 0 mm 2 mps 701 mmHg 94%
    13:00 +3°C° 0 mm 2 mps 701 mmHg 94%
    14:00 +2°C° 0 mm 2 mps 701 mmHg 94%
    15:00 +2°C° 0 mm 2 mps 700 mmHg 94%
    16:00 +1°C° 0 mm 2 mps 700 mmHg 93%
    17:00 +1°C° 0 mm 2 mps 700 mmHg 92%
    18:00 +1°C° 0 mm 2 mps 700 mmHg 91%
    19:00 -1°C° 0 mm 2 mps 700 mmHg 90%
    20:00 -1°C° 0 mm 2 mps 699 mmHg 90%
    21:00 -2°C° 0 mm 2 mps 699 mmHg 89%
    22:00 -2°C° 0 mm 2 mps 699 mmHg 89%
    23:00 -3°C° 0 mm 2 mps 699 mmHg 89%

    28 January, Monday

    Time Temperature Precipitation Wind Pressure Humidity
    00:00 -3°C° 0 mm 2 mps 699 mmHg 89%
    01:00 -4°C° 0 mm 2 mps 698 mmHg 89%
    02:00 -4°C° 0 mm 2 mps 698 mmHg 89%
    03:00 -3°C° 0 mm 2 mps 698 mmHg 89%
    04:00 -3°C° 0 mm 2 mps 698 mmHg 89%
    05:00 -3°C° 0 mm 2 mps 698 mmHg 89%
    06:00 -3°C° 0 mm 2 mps 698 mmHg 90%
    07:00 -3°C° 0 mm 2 mps 698 mmHg 90%
    08:00 0°C° 0 mm 1 mps 698 mmHg 90%
    09:00 +1°C° 0 mm 1 mps 698 mmHg 91%
    10:00 +2°C° 0 mm 1 mps 698 mmHg 91%
    11:00 +2°C° 0.2 mm 1 mps 698 mmHg 93%
    12:00 +3°C° 0.2 mm 1 mps 698 mmHg 94%
    13:00 +3°C° 0.2 mm 1 mps 698 mmHg 95%
    14:00 +3°C° 0.3 mm 1 mps 698 mmHg 95%
    15:00 +2°C° 0.3 mm 1 mps 698 mmHg 95%
    16:00 +2°C° 0.3 mm 1 mps 698 mmHg 95%
    17:00 +2°C° 0.1 mm 1 mps 698 mmHg 95%
    18:00 +2°C° 0.1 mm 1 mps 698 mmHg 95%
    19:00 +1°C° 0.1 mm 1 mps 698 mmHg 94%
    20:00 -1°C° 0.1 mm 2 mps 699 mmHg 94%
    21:00 -1°C° 0.1 mm 2 mps 699 mmHg 93%
    22:00 -1°C° 0.1 mm 2 mps 699 mmHg 92%
    23:00 -1°C° 0.2 mm 3 mps 700 mmHg 92%

    29 January, Tuesday

    Time Temperature Precipitation Wind Pressure Humidity
    00:00 -1°C° 0.2 mm 3 mps 700 mmHg 91%
    01:00 -2°C° 0.2 mm 4 mps 701 mmHg 90%
    02:00 -2°C° 0.6 mm 4 mps 702 mmHg 90%
    03:00 -3°C° 0.6 mm 4 mps 702 mmHg 90%
    04:00 -4°C° 0.6 mm 5 mps 703 mmHg 90%
    05:00 -4°C° 0.2 mm 4 mps 704 mmHg 90%
    06:00 -4°C° 0.2 mm 4 mps 704 mmHg 91%
    07:00 -5°C° 0.2 mm 4 mps 705 mmHg 91%
    08:00 -5°C° 0.2 mm 4 mps 706 mmHg 90%
    09:00 -5°C° 0.2 mm 4 mps 707 mmHg 89%
    10:00 -5°C° 0.2 mm 3 mps 708 mmHg 87%
    11:00 -4°C° 0.2 mm 3 mps 708 mmHg 86%
    12:00 -4°C° 0.2 mm 3 mps 708 mmHg 84%
    13:00 -4°C° 0.2 mm 3 mps 708 mmHg 82%
    14:00 -4°C° 0 mm 3 mps 709 mmHg 83%
    15:00 -4°C° 0 mm 2 mps 709 mmHg 84%
    16:00 -2°C° 0 mm 1 mps 709 mmHg 85%
    17:00 -4°C° 0 mm 1 mps 709 mmHg 86%
    18:00 -6°C° 0 mm 1 mps 709 mmHg 87%
    19:00 -7°C° 0 mm 1 mps 709 mmHg 88%
    20:00 -7°C° 0 mm 1 mps 709 mmHg 87%
    21:00 -9°C° 0 mm 2 mps 709 mmHg 87%
    22:00 -9°C° 0 mm 2 mps 709 mmHg 86%
    23:00 -9°C° 0 mm 2 mps 709 mmHg 85%
    Show more